Track DUCHIFAT-3 now! 10-day predictions DUCHIFAT-3 is classified as:
1 44854U 19089C 22147.91618412 .00005635 00000-0 43897-3 0 9993 2 44854 36.9643 222.0850 0007923 45.7366 123.4152 15.00977322134843